Regional Weather Roundup
Issued by NWS

Home | Current Version | Previous Version | Text Only | Print | Product List | Glossary Off
Versions: 1 2 3 4 5 6 7 8 9 10 11 12 13 14 15 16 17 18 19 20 21 22 23 24 25 26 27

000
ASUS45 KCYS 310210
RWRWY

WYOMING REGIONAL WEATHER ROUNDUP
NATIONAL WEATHER SERVICE CHEYENNE WY
800 PM MDT TUE AUG 30 2016

NOTE:  "FAIR" INDICATES FEW OR NO CLOUDS BELOW 12,000 FEET
WITH NO SIGNIFICANT WEATHER AND/OR OBSTRUCTIONS TO VISIBILITY.

WYZ001-310300-
YELLOWSTONE NATIONAL PARK

CITY           SKY/WX    TMP DP  RH WIND       PRES   REMARKS
LK YELLOWSTONE   N/A     63  36  36 CALM      30.36S
W YELLOWSTONE  NOT AVBL

$$
WYZ002>013-054>058-071-098>099-310300-
NORTHERN WYOMING

CITY           SKY/WX    TMP DP  RH WIND       PRES   REMARKS
JACKSON        NOT AVBL
CODY           FAIR      79  28  15 SE7       30.13S
GREYBULL       FAIR      86  32  14 S3        30.03F
WORLAND        FAIR      78  31  17 S9        30.07S
SHERIDAN       FAIR      79  34  19 S9        30.07R
BUFFALO        FAIR      78  32  18 S12       30.18S
GILLETTE       FAIR      78  45  30 SE14      30.17R
HULETT         FAIR      72  46  40 SE8       30.20S
NEWCASTLE      FAIR      73  45  35 SE8       30.22R

$$
WYZ014>020-022>026-101>103-310300-
CENTRAL WYOMING

CITY           SKY/WX    TMP DP  RH WIND       PRES   REMARKS
BIG PINEY      FAIR      72  28  19 W5        30.30R
PINEDALE       FAIR      72  27  18 CALM      30.31R
DUBOIS         FAIR      70  25  18 SE9       30.30R
LANDER         FAIR      76  28  17 CALM      30.19S
RIVERTON       FAIR      79  28  15 NE5       30.18S
CASPER         FAIR      74  41  30 E12       30.21S
DOUGLAS        FAIR      72  36  26 SE12      30.24S

$$
WYZ021-027>030-104>119-310300-
SOUTHERN WYOMING

CITY           SKY/WX    TMP DP  RH WIND       PRES   REMARKS
EVANSTON       FAIR      73  22  14 E6        30.28S
FORT BRIDGER   FAIR      73  19  13 E7        30.31S
ROCK SPRINGS   FAIR      72  19  13 E5        30.27S
DIXON          MOCLDY    74  31  20 NE12      30.26R
RAWLINS        FAIR      71  40  32 E16       30.31R
SARATOGA       FAIR      68  37  32 S7        30.32R
LARAMIE        FAIR      63  44  50 E15       30.38R
CHEYENNE       FAIR      64  51  62 S6        30.35R
TORRINGTON     FAIR      74  52  46 SE10      30.22R
PINE BLUFFS    FAIR      66  54  63 SE8       30.31R

$$




USA.gov is the U.S. government's official web portal to all federal, state and local government web resources and services.